Wind_Speed
24 23 27 29 22 20 8 15 22 8 22 21 31 26 30 20 28 11 26 11 2 2 4 6 6 6 4 5 10 11 10 10 12 12 11 10 10 9 8 8 7 6 4 3 2 2 3 3 5
29 23 26 25 24 23 16 13 17 35 21 19 29 30 20 10 9 6 6 4 4 3 5 6 4 4 5 10 8 10 11 11 12 14 14 12 12 12 11 11 10 8 6 5 4 4 4 4 5
27 21 27 20 22 25 12 16 33 31 26 23 30 34 35 32 26 11 10 10 8 8 7 7 7 6 6 6 7 9 10 12 12 15 15 15 14 13 13 13 13 11 8 7 6 6 6 6 6
16 22 23 23 25 13 24 21 22 24 21 25 35 36 28 23 17 18 15 16 13 11 9 8 7 8 9 9 10 10 10 11 11 12 15 16 16 16 15 15 15 14 12 9 8 8 7 7 8
17 15 7 10 28 19 26 23 17 21 29 23 34 39 30 22 22 21 21 22 21 15 15 14 13 11 9 9 12 12 13 12 12 12 12 14 15 16 17 17 17 16 14 12 12 10 9 9 10
8 8 5 4 14 25 22 26 26 23 31 31 34 41 30 25 23 24 22 23 29 16 21 21 20 19 19 16 14 14 14 15 14 14 14 14 14 16 16 17 18 18 16 15 14 12 11 12 11
10 8 10 7 9 23 23 23 20 20 28 38 35 36 32 26 25 26 27 30 28 25 25 25 24 24 23 22 19 17 17 16 16 17 16 17 16 16 17 18 17 17 17 17 16 15 13 14 13
14 15 13 16 13 23 12 22 23 16 15 13 25 35 34 15 23 28 32 30 30 33 32 28 31 29 27 25 24 23 21 20 20 19 20 21 20 20 20 19 19 19 18 17 17 17 15 14 15
9 9 5 13 22 24 22 18 25 28 29 26 27 32 37 34 32 33 33 34 38 38 38 34 35 32 33 30 30 30 29 27 26 25 25 25 25 25 24 23 22 21 20 18 18 19 18 17 17
5 6 9 27 29 26 27 22 27 20 29 31 34 38 40 39 42 38 40 41 45 45 45 40 42 38 38 37 37 37 36 35 34 34 33 32 31 30 29 28 26 25 24 22 22 22 21 20 19
5 13 17 27 21 23 23 23 26 21 26 30 35 33 32 37 41 43 42 44 46 48 50 49 46 48 45 47 47 43 43 43 43 41 40 40 38 36 35 34 31 30 29 26 27 26 25 24 21
9 11 11 18 13 18 21 21 23 23 24 30 36 31 30 37 41 40 43 45 45 48 47 46 50 48 47 47 50 51 49 48 43 45 45 42 41 40 41 39 37 35 34 33 31 29 28 26 24
11 8 11 12 14 13 16 19 20 23 25 31 31 34 33 38 40 43 43 41 46 47 47 49 49 50 50 51 50 51 54 50 50 52 44 42 45 42 42 44 43 40 40 38 37 35 33 30 27
11 15 18 16 17 15 16 20 24 22 25 31 25 31 34 38 40 45 46 46 47 44 45 46 47 50 50 52 53 54 54 52 51 53 55 48 45 47 46 44 45 46 45 44 42 41 40 36 31
8 13 16 20 19 21 23 27 30 32 35 37 30 32 34 35 38 42 45 45 44 46 47 48 49 50 50 51 52 53 54 54 53 55 56 59 50 47 51 49 48 46 48 49 47 46 44 42 39
11 13 14 28 35 37 32 30 30 35 39 43 44 39 35 37 40 42 48 41 45 43 44 46 48 50 50 50 51 52 54 55 55 52 54 57 60 51 53 54 53 51 50 49 49 49 49 45 42
24 5 14 18 26 39 36 34 34 34 36 40 44 44 44 42 43 43 48 38 43 41 43 46 45 47 49 50 50 51 52 53 54 55 54 57 59 55 54 56 58 58 55 53 50 50 49 52 49
13 22 25 27 28 35 38 38 38 38 39 40 42 44 45 45 43 46 49 42 43 41 41 42 44 44 46 47 48 48 49 51 53 53 52 54 57 62 54 52 62 62 62 58 54 52 51 51 50
20 24 27 28 33 36 38 41 41 41 42 41 42 42 42 44 44 45 45 44 44 44 42 44 46 47 48 49 49 50 50 49 50 52 53 53 56 58 56 48 58 64 64 64 59 56 55 44 43
27 31 33 34 35 40 42 43 44 42 42 40 43 39 38 39 42 45 44 44 45 48 46 47 47 48 50 51 54 55 55 54 54 54 56 57 55 54 56 58 42 58 57 58 63 60 57 54 53
33 35 39 39 39 40 44 48 44 38 29 36 44 42 36 38 42 49 53 52 51 50 50 48 49 52 52 52 54 55 56 57 58 58 58 59 58 56 56 56 54 44 40 53 56 59 60 54 53
35 37 42 42 44 44 41 50 40 32 25 27 37 41 41 40 47 48 52 55 55 53 53 53 51 48 53 55 56 57 58 59 58 59 61 61 60 57 50 56 56 60 56 58 58 56 56 57 54
39 41 41 42 43 44 42 28 35 18 22 18 22 31 37 45 47 51 54 56 59 60 62 57 54 49 50 49 51 53 55 57 59 58 58 60 60 59 52 51 45 57 67 73 61 55 52 51 50
42 40 42 43 41 41 27 26 26 20 26 30 32 39 39 49 48 44 44 44 53 59 62 47 54 46 42 50 50 50 50 52 53 52 50 50 54 57 57 58 61 59 44 66 63 53 54 51 46
37 40 44 45 39 36 22 26 30 31 31 34 37 41 52 53 36 35 38 43 40 45 56 47 47 49 55 49 47 45 46 50 48 46 43 41 42 48 53 56 56 59 65 44 47 48 48 48 48
39 38 34 39 36 39 34 38 32 24 33 43 46 51 50 47 58 50 40 48 53 41 41 49 50 49 52 50 48 48 46 43 45 42 41 38 41 43 47 54 61 57 32 45 45 51 55 53 50
32 30 32 38 39 43 38 36 17 29 44 50 50 55 61 57 53 43 43 57 61 47 32 50 51 49 48 45 50 51 50 45 41 44 42 40 40 40 40 48 61 67 73 41 51 54 54 54 52
35 36 38 35 40 46 43 38 37 24 31 36 38 39 40 42 38 43 50 59 60 54 48 48 47 49 45 40 48 50 49 47 43 40 41 39 39 42 38 41 51 64 66 56 54 48 48 50 50
37 31 30 35 37 42 45 47 35 41 43 47 51 56 64 67 67 67 64 55 63 56 54 51 43 45 43 39 46 48 46 42 40 40 39 38 37 36 36 36 38 50 59 55 40 33 33 42 44
40 35 35 32 37 47 49 53 45 45 47 49 55 53 51 58 52 50 44 53 52 64 66 55 46 43 44 42 47 46 44 41 38 38 38 38 33 37 37 35 37 43 49 53 49 39 37 41 41
Wind_Direction
212 224 207 202 182 166 158 260 234 256 237 227 246 258 257 234 229 208 101 95 143 197 197 211 214 226 236 237 249 245 238 235 234 235 229 223 222 216 219 224 219 215 221 237 268 290 336 7 2
216 211 229 213 165 169 161 233 239 234 237 237 263 250 264 147 60 27 34 20 313 287 268 267 246 241 225 259 273 271 265 258 244 234 233 231 224 222 224 232 237 237 237 252 262 274 304 324 336
267 204 220 197 193 194 205 217 225 238 232 243 245 259 266 304 326 334 296 294 288 293 284 260 255 260 263 263 270 274 283 272 253 244 239 237 234 226 230 236 239 241 242 247 261 272 283 293 312
273 242 245 186 165 253 229 234 222 234 237 245 252 255 261 275 279 289 285 280 276 276 267 270 264 258 259 266 264 270 282 282 287 271 253 245 243 238 237 241 247 248 249 252 257 263 265 282 299
294 242 323 242 184 265 243 225 207 218 234 244 254 251 254 270 271 270 279 279 265 280 273 271 274 273 276 290 280 269 270 277 278 279 279 268 254 248 247 250 253 254 255 254 256 259 266 278 287
257 231 75 309 316 274 264 242 223 225 224 236 253 255 256 264 271 275 277 267 269 271 274 273 273 273 276 283 288 288 279 273 274 276 275 272 270 266 262 259 259 260 257 253 257 258 263 277 284
221 247 219 168 263 271 262 269 213 239 250 236 250 274 262 259 266 271 266 275 274 271 271 271 269 267 270 273 278 280 278 278 280 280 277 272 268 268 269 268 266 267 264 259 259 263 264 275 282
242 249 222 211 265 265 238 244 260 280 271 265 257 260 264 251 271 271 272 270 268 266 252 261 267 263 266 269 274 276 272 270 271 273 279 279 272 268 265 264 266 265 264 264 265 263 269 277 283
253 256 268 215 240 272 284 262 251 244 257 261 259 268 277 277 263 264 269 274 271 272 266 258 258 259 267 266 271 269 266 263 263 263 265 270 273 269 266 265 264 265 266 264 263 267 273 280 282
244 227 245 240 252 276 286 289 274 263 257 253 253 253 259 269 274 267 265 263 264 267 268 272 274 272 275 266 268 270 270 268 266 264 264 264 264 264 265 263 263 261 260 261 263 267 272 278 282
228 200 262 249 277 279 283 291 279 291 278 275 260 274 274 267 266 269 265 266 266 267 269 271 269 269 271 274 270 265 264 268 268 266 265 266 265 261 259 259 260 260 262 258 258 263 269 272 277
274 274 277 284 282 282 289 293 293 289 279 276 283 282 276 273 269 264 268 268 264 267 266 265 270 270 267 267 272 272 271 267 260 264 267 265 263 262 259 256 255 258 258 260 258 258 262 266 271
301 285 285 301 303 302 297 296 295 291 283 284 286 285 284 278 277 275 269 264 268 267 268 268 267 268 268 269 268 269 272 271 270 270 257 257 264 258 256 256 254 251 257 257 259 260 260 261 265
301 307 312 310 318 324 330 317 312 300 287 290 292 280 277 275 275 276 275 273 273 274 271 272 270 269 269 269 269 267 266 269 270 270 269 262 257 262 260 257 257 257 253 254 257 259 260 261 264
303 302 299 293 300 314 325 321 317 315 312 309 302 290 283 278 277 274 272 274 272 272 274 274 272 271 271 270 269 270 270 268 267 268 269 269 263 259 262 260 259 257 258 256 255 256 256 260 262
292 303 7 321 321 316 323 320 318 315 313 311 309 307 299 293 286 283 281 283 279 278 275 272 272 272 270 268 269 269 268 267 266 266 267 267 267 261 261 261 260 258 256 257 257 257 258 260 260
329 300 284 293 300 307 311 315 315 311 304 302 302 304 302 296 291 287 283 283 280 279 278 276 274 274 273 273 270 267 265 266 265 264 264 265 264 262 259 259 261 261 259 257 257 256 257 258 258
236 279 294 299 302 302 309 311 310 307 301 297 295 296 297 294 292 287 288 289 285 283 281 279 277 275 273 272 272 270 267 266 265 264 263 264 264 262 255 261 262 262 262 260 258 258 257 256 257
293 288 290 294 298 300 304 307 308 303 298 292 289 290 290 290 285 288 287 288 286 285 286 283 280 278 275 273 271 270 269 266 263 261 260 259 261 264 261 257 258 261 260 261 259 257 255 256 255
292 292 292 295 301 300 301 303 304 299 293 289 287 288 285 283 284 286 284 284 284 285 284 285 282 279 276 275 274 272 269 267 265 262 259 256 254 257 259 246 263 257 253 254 258 258 257 253 257
296 297 293 297 296 297 299 301 306 298 279 284 285 286 280 280 285 287 286 285 286 287 289 287 284 283 282 281 277 274 272 268 265 263 260 259 259 257 258 257 256 257 256 257 256 255 256 253 253
300 295 299 301 300 302 299 300 301 303 301 288 299 296 293 293 290 293 295 295 294 294 293 289 287 287 285 283 281 278 275 271 267 261 259 258 257 254 251 256 256 252 254 252 250 249 248 250 247
299 299 299 299 300 303 305 303 310 310 276 288 283 277 276 285 293 299 299 301 302 305 300 300 292 293 289 285 283 278 273 269 265 261 257 254 252 251 245 246 249 250 255 247 244 242 244 245 245
303 301 301 305 310 306 312 299 311 284 265 264 274 277 279 279 294 304 299 293 311 303 296 293 304 295 289 289 286 283 279 272 267 264 260 256 252 247 241 240 244 245 264 249 237 238 239 243 244
308 310 308 305 302 300 283 258 257 265 281 277 263 259 273 286 285 274 274 291 315 280 272 286 299 281 286 289 285 279 278 270 262 260 258 257 255 250 241 235 238 244 258 229 239 243 243 243 246
310 307 309 304 308 303 304 297 300 286 268 262 258 259 264 272 287 285 279 297 292 283 268 279 293 290 287 286 283 281 281 272 261 255 252 255 249 248 244 234 231 228 236 231 236 242 242 240 241
307 307 302 304 304 301 303 301 300 284 291 284 280 280 276 274 274 273 261 295 289 264 267 281 286 287 281 281 279 280 280 276 266 254 251 253 250 244 246 238 231 235 247 250 240 236 240 241 241
314 314 310 307 307 303 305 296 297 274 279 284 281 290 275 275 270 273 272 283 281 276 286 272 290 291 291 279 277 275 276 276 267 265 251 252 250 246 250 243 236 235 240 245 242 251 236 240 242
308 293 292 298 287 280 291 298 291 288 274 269 273 273 274 277 277 278 278 272 275 284 272 291 294 289 290 283 277 277 276 271 267 266 251 247 249 246 245 241 239 235 232 232 229 245 231 242 243
313 312 305 309 299 291 288 296 295 286 295 286 283 280 277 280 284 284 287 271 278 283 285 292 288 280 281 283 278 275 272 262 262 264 252 247 253 239 243 243 242 238 233 234 237 244 243 244 245
Height
5890 5892 5896 5899 5905 5909 5913 5916 5910 5910 5904 5902 5893 5894 5892 5883 5885 5886 5859 5896 5904 5908 5908 5908 5909 5912 5913 5914 5915 5916 5917 5917 5918 5919 5919 5919 5920 5919 5919 5920 5919 5918 5919 5919 5918 5919 5919 5919 5918
5887 5890 5893 5896 5902 5899 5902 5908 5905 5901 5906 5904 5893 5889 5853 5869 5878 5887 5891 5902 5906 5909 5909 5908 5908 5911 5913 5915 5915 5916 5916 5917 5917 5918 5918 5918 5918 5919 5919 5919 5919 5918 5918 5918 5918 5919 5919 5919 5918
5884 5886 5890 5892 5894 5897 5901 5897 5897 5901 5904 5903 5896 5884 5882 5881 5880 5892 5900 5905 5905 5908 5907 5907 5907 5909 5911 5912 5913 5914 5915 5915 5916 5917 5917 5917 5917 5917 5918 5918 5918 5917 5917 5917 5917 5918 5918 5918 5917
5884 5886 5888 5893 5891 5892 5892 5893 5900 5899 5902 5899 5891 5888 5891 5895 5900 5898 5899 5900 5904 5906 5905 5905 5907 5909 5910 5911 5911 5912 5912 5913 5914 5916 5916 5916 5916 5916 5917 5917 5917 5917 5916 5916 5917 5917 5917 5917 5916
5884 5886 5886 5887 5886 5885 5892 5893 5895 5898 5896 5897 5883 5885 5891 5891 5895 5900 5899 5898 5900 5901 5901 5904 5906 5908 5909 5909 5910 5910 5911 5912 5912 5913 5914 5915 5915 5915 5915 5915 5915 5915 5915 5915 5915 5916 5916 5916 5915
5887 5887 5886 5889 5886 5887 5893 5893 5894 5894 5891 5890 5884 5881 5890 5891 5894 5894 5896 5896 5889 5899 5897 5900 5902 5904 5905 5907 5908 5909 5910 5910 5911 5912 5913 5913 5914 5914 5913 5913 5913 5913 5914 5914 5914 5914 5914 5914 5914
5886 5886 5888 5892 5891 5884 5889 5892 5889 5890 5891 5888 5886 5883 5883 5888 5890 5890 5891 5887 5888 5892 5895 5895 5897 5899 5901 5903 5904 5906 5907 5908 5909 5909 5910 5911 5911 5911 5911 5912 5911 5911 5912 5912 5912 5913 5913 5913 5912
5883 5884 5885 5888 5889 5884 5885 5886 5885 5885 5887 5892 5888 5882 5877 5888 5887 5885 5882 5884 5884 5883 5887 5892 5890 5893 5896 5898 5900 5902 5903 5903 5904 5906 5907 5908 5908 5908 5908 5908 5908 5908 5908 5910 5910 5910 5911 5911 5911
5879 5881 5885 5886 5883 5881 5880 5884 5883 5884 5884 5886 5886 5882 5880 5882 5883 5883 5883 5882 5879 5881 5879 5882 5885 5890 5890 5892 5895 5896 5896 5897 5898 5900 5901 5903 5904 5905 5905 5905 5905 5906 5906 5907 5907 5908 5908 5909 5909
5877 5878 5879 5877 5877 5878 5878 5880 5878 5883 5880 5880 5881 5878 5877 5877 5877 5880 5879 5878 5874 5873 5875 5880 5879 5882 5884 5884 5887 5889 5890 5891 5893 5894 5894 5895 5897 5899 5901 5902 5902 5902 5903 5904 5904 5904 5905 5906 5906
5875 5875 5873 5876 5878 5877 5875 5875 5873 5876 5874 5873 5872 5875 5876 5874 5872 5869 5870 5872 5871 5871 5869 5870 5874 5873 5877 5875 5878 5881 5882 5882 5884 5886 5887 5888 5890 5891 5893 5895 5897 5898 5899 5899 5900 5901 5901 5903 5903
5873 5872 5873 5872 5875 5874 5871 5870 5870 5870 5870 5868 5864 5867 5868 5864 5863 5865 5864 5864 5864 5863 5867 5868 5863 5866 5867 5868 5865 5866 5869 5872 5877 5876 5877 5879 5881 5883 5884 5886 5890 5891 5893 5894 5895 5895 5896 5897 5899
5868 5870 5870 5869 5869 5869 5869 5867 5867 5865 5865 5861 5862 5859 5860 5857 5856 5854 5855 5858 5854 5856 5858 5857 5858 5858 5858 5858 5860 5860 5859 5863 5862 5862 5870 5872 5870 5873 5875 5877 5879 5884 5884 5887 5888 5890 5890 5892 5893
5867 5865 5863 5863 5863 5864 5863 5861 5859 5861 5859 5855 5858 5854 5853 5850 5848 5845 5844 5845 5846 5848 5848 5848 5848 5847 5849 5849 5849 5850 5852 5853 5853 5853 5852 5861 5863 5863 5865 5868 5869 5872 5876 5878 5880 5882 5884 5887 5887
5866 5865 5863 5861 5860 5859 5860 5857 5852 5850 5848 5845 5848 5847 5846 5844 5840 5837 5836 5836 5836 5837 5837 5835 5835 5837 5838 5838 5839 5839 5839 5842 5844 5844 5844 5843 5852 5855 5853 5857 5860 5862 5863 5867 5870 5873 5876 5878 5881
5864 5862 5861 5856 5853 5849 5853 5853 5850 5845 5840 5835 5832 5833 5834 5832 5830 5827 5825 5826 5824 5826 5825 5826 5824 5824 5825 5826 5827 5828 5829 5829 5831 5833 5833 5831 5835 5844 5843 5845 5849 5851 5853 5855 5860 5863 5866 5869 5871
5860 5865 5862 5861 5854 5849 5848 5846 5844 5842 5838 5833 5828 5825 5822 5821 5819 5815 5815 5816 5815 5815 5813 5813 5814 5812 5813 5813 5815 5816 5817 5818 5818 5821 5822 5821 5822 5829 5832 5835 5836 5839 5842 5845 5848 5852 5855 5858 5863
5861 5858 5857 5855 5853 5845 5842 5841 5838 5835 5831 5826 5822 5819 5815 5812 5808 5804 5801 5804 5803 5805 5805 5804 5803 5803 5802 5801 5801 5802 5805 5806 5807 5808 5810 5810 5810 5811 5824 5827 5829 5828 5830 5835 5838 5841 5843 5846 5850
5855 5854 5852 5850 5846 5842 5838 5834 5831 5827 5823 5819 5815 5811 5808 5803 5798 5796 5794 5793 5793 5794 5794 5793 5792 5791 5790 5790 5789 5789 5790 5792 5793 5794 5796 5798 5798 5800 5810 5823 5815 5816 5818 5822 5825 5829 5832 5836 5839
5849 5846 5844 5841 5837 5833 5829 5826 5823 5818 5813 5808 5804 5805 5800 5795 5789 5784 5786 5786 5785 5783 5784 5782 5780 5779 5777 5776 5776 5776 5776 5778 5778 5778 5779 5781 5786 5791 5797 5806 5790 5793 5799 5808 5813 5815 5820 5825 5829
5842 5838 5833 5832 5829 5826 5819 5814 5812 5808 5805 5800 5795 5793 5790 5787 5781 5774 5771 5772 5770 5769 5769 5769 5768 5764 5762 5761 5761 5761 5760 5762 5764 5763 5764 5766 5774 5780 5785 5792 5792 5777 5786 5799 5803 5804 5808 5815 5818
5834 5829 5824 5821 5818 5814 5810 5801 5805 5798 5796 5793 5786 5781 5777 5773 5769 5766 5759 5757 5756 5756 5753 5751 5753 5752 5746 5745 5744 5744 5744 5745 5745 5748 5749 5752 5758 5766 5773 5776 5777 5772 5773 5779 5785 5788 5792 5798 5805
5824 5820 5816 5812 5807 5802 5801 5794 5794 5795 5790 5786 5784 5777 5770 5765 5761 5756 5751 5746 5740 5738 5734 5731 5734 5734 5732 5730 5728 5727 5727 5727 5728 5728 5732 5735 5741 5748 5757 5761 5755 5764 5767 5762 5768 5776 5782 5786 5791
5812 5809 5806 5801 5796 5791 5792 5792 5788 5789 5786 5782 5779 5771 5762 5757 5754 5748 5743 5740 5735 5725 5722 5719 5715 5718 5717 5716 5715 5713 5712 5713 5712 5713 5715 5718 5724 5731 5738 5746 5744 5748 5747 5749 5754 5763 5771 5775 5780
5803 5798 5793 5792 5789 5786 5786 5782 5780 5777 5777 5769 5764 5756 5752 5749 5748 5742 5737 5731 5730 5721 5705 5710 5705 5708 5706 5705 5703 5702 5700 5698 5699 5700 5703 5706 5710 5714 5721 5729 5731 5736 5739 5737 5747 5757 5762 5765 5770
5794 5790 5786 5779 5778 5775 5777 5771 5772 5766 5760 5752 5747 5741 5737 5733 5731 5729 5725 5717 5717 5717 5690 5695 5695 5696 5692 5694 5692 5690 5689 5688 5687 5688 5691 5694 5697 5701 5706 5714 5716 5723 5710 5723 5728 5740 5747 5752 5758
5789 5784 5780 5773 5771 5764 5766 5764 5764 5759 5742 5735 5735 5732 5724 5717 5717 5716 5713 5711 5703 5698 5683 5681 5686 5685 5681 5682 5680 5679 5676 5677 5676 5677 5679 5682 5686 5690 5694 5701 5706 5706 5702 5714 5718 5720 5731 5741 5746
5779 5773 5770 5766 5758 5752 5752 5751 5750 5747 5732 5723 5721 5716 5713 5708 5707 5704 5700 5698 5690 5688 5678 5676 5675 5671 5668 5666 5668 5667 5665 5664 5665 5666 5668 5671 5674 5678 5683 5687 5691 5693 5697 5708 5705 5711 5720 5726 5735
5773 5769 5764 5759 5755 5745 5737 5738 5740 5732 5726 5719 5711 5705 5701 5695 5696 5692 5686 5680 5678 5672 5665 5664 5662 5657 5655 5654 5655 5655 5653 5652 5653 5655 5657 5660 5664 5667 5671 5675 5677 5680 5688 5695 5700 5706 5711 5716 5722
5761 5758 5754 5747 5743 5738 5728 5720 5728 5715 5710 5700 5695 5690 5687 5683 5676 5670 5665 5665 5662 5658 5653 5651 5651 5649 5644 5643 5644 5643 5640 5642 5643 5644 5647 5650 5653 5657 5661 5664 5666 5670 5673 5682 5689 5696 5703 5708 5715